SIA241 WSSS-YSSY

Flight info

Callsign SIA241
Flight time 7h 38m
Altitude 39000
Route IDBUD1A IDBUD T24 SURGA M635 ATMAP A576 AS/N0481F410 A576 APOMA Y52 VELGI Y105 TARAL Y59 RIVET
Aircraft A359/H-SDE2E3GHIJ3J4J5LM1ORWXY/LB1D1

Departure

Time 2026-04-26 13:35
Airport Singapore Changi Airport (WSSS)

Arrival

Time 2026-04-26 21:13
Airport Sydney Kingsford Smith International Airport (YSSY)
Time Latitude Longitude Altitude Speed Heading
2026-04-26 13:07 1.35278 103.98412 37 ft 0 kts 86°
2026-04-26 13:22 1.35277 103.98394 35 ft 3 kts 93°
2026-04-26 13:22 1.35279 103.98375 33 ft 3 kts 105°
2026-04-26 13:23 1.35286 103.98358 31 ft 3 kts 112°
2026-04-26 13:23 1.35292 103.98341 33 ft 3 kts 116°
2026-04-26 13:23 1.35303 103.98325 33 ft 3 kts 136°
2026-04-26 13:23 1.35318 103.98314 35 ft 3 kts 157°
2026-04-26 13:24 1.35329 103.98310 33 ft 0 kts 169°
2026-04-26 13:28 1.35328 103.98310 33 ft 0 kts 172°
2026-04-26 13:28 1.35320 103.98308 34 ft 4 kts 185°
2026-04-26 13:28 1.35269 103.98293 35 ft 11 kts 200°
2026-04-26 13:29 1.35175 103.98252 36 ft 17 kts 213°
2026-04-26 13:29 1.35132 103.98205 36 ft 13 kts 233°
2026-04-26 13:29 1.35077 103.98129 37 ft 8 kts 226°
2026-04-26 13:29 1.35026 103.98094 37 ft 10 kts 209°
2026-04-26 13:30 1.34953 103.98061 37 ft 13 kts 204°
2026-04-26 13:30 1.34869 103.98024 37 ft 10 kts 202°
2026-04-26 13:30 1.34851 103.98016 37 ft 0 kts 210°
2026-04-26 13:30 1.34847 103.98010 37 ft 4 kts 225°
2026-04-26 13:31 1.34835 103.97959 37 ft 11 kts 274°
2026-04-26 13:31 1.34848 103.97904 38 ft 1 kts 287°
2026-04-26 13:31 1.34856 103.97882 38 ft 3 kts 289°
2026-04-26 13:31 1.34872 103.97841 38 ft 9 kts 290°
2026-04-26 13:32 1.34913 103.97780 39 ft 11 kts 326°
2026-04-26 13:32 1.34964 103.97780 39 ft 0 kts 17°
2026-04-26 13:33 1.34976 103.97784 39 ft 10 kts 17°
2026-04-26 13:34 1.35263 103.97901 39 ft 78 kts 22°
2026-04-26 13:34 1.35946 103.98188 33 ft 133 kts 23°
2026-04-26 13:34 1.36949 103.98609 95 ft 174 kts 22°
2026-04-26 13:34 1.37676 103.98921 548 ft 169 kts 22°
2026-04-26 13:35 1.39092 103.99542 1405 ft 167 kts 24°
2026-04-26 13:35 1.40200 104.00015 1671 ft 180 kts 22°
2026-04-26 13:35 1.41410 104.00518 1838 ft 196 kts 22°
2026-04-26 13:35 1.42727 104.01067 2010 ft 216 kts 22°
2026-04-26 13:36 1.44173 104.01674 2237 ft 234 kts 22°
2026-04-26 13:36 1.45730 104.02332 2505 ft 249 kts 22°
2026-04-26 13:36 1.47296 104.03077 2943 ft 256 kts 32°
2026-04-26 13:36 1.48796 104.04050 3470 ft 259 kts 31°
2026-04-26 13:37 1.50398 104.04892 4011 ft 262 kts 23°
2026-04-26 13:37 1.52125 104.05490 4539 ft 264 kts 22°
2026-04-26 13:37 1.53591 104.06581 5026 ft 265 kts 50°
2026-04-26 13:37 1.54460 104.08204 5544 ft 268 kts 75°
2026-04-26 13:38 1.54534 104.10062 6063 ft 272 kts 100°
2026-04-26 13:38 1.53704 104.11757 6554 ft 277 kts 130°
2026-04-26 13:38 1.52160 104.12873 7047 ft 281 kts 151°
2026-04-26 13:38 1.50413 104.13765 7584 ft 282 kts 150°
2026-04-26 13:39 1.48680 104.14706 8091 ft 284 kts 148°
2026-04-26 13:39 1.46966 104.15699 8610 ft 285 kts 147°
2026-04-26 13:39 1.45261 104.16724 9123 ft 287 kts 146°
2026-04-26 13:39 1.43676 104.17934 9623 ft 287 kts 130°
2026-04-26 13:40 1.42612 104.19595 10105 ft 285 kts 114°
2026-04-26 13:40 1.41774 104.21402 10500 ft 290 kts 112°
2026-04-26 13:40 1.40925 104.23280 10710 ft 303 kts 113°
2026-04-26 13:40 1.40032 104.25240 10885 ft 315 kts 113°
2026-04-26 13:41 1.39103 104.27266 11104 ft 326 kts 113°
2026-04-26 13:41 1.38137 104.29362 11269 ft 338 kts 113°
2026-04-26 13:41 1.37135 104.31529 11401 ft 350 kts 113°
2026-04-26 13:41 1.36096 104.33778 11490 ft 362 kts 114°
2026-04-26 13:42 1.34944 104.36019 11657 ft 371 kts 120°
2026-04-26 13:42 1.33412 104.38116 11957 ft 376 kts 127°
2026-04-26 13:42 1.31735 104.40134 12299 ft 379 kts 129°
2026-04-26 13:42 1.29990 104.42105 12644 ft 381 kts 130°
2026-04-26 13:43 1.28194 104.44068 12995 ft 383 kts 131°
2026-04-26 13:43 1.26380 104.46027 13339 ft 384 kts 131°
2026-04-26 13:43 1.24561 104.47992 13684 ft 386 kts 131°
2026-04-26 13:43 1.22738 104.49970 13985 ft 388 kts 131°
2026-04-26 13:44 1.20914 104.51959 14273 ft 390 kts 130°
2026-04-26 13:44 1.19081 104.53965 14583 ft 391 kts 130°
2026-04-26 13:44 1.17246 104.55978 14876 ft 393 kts 130°
2026-04-26 13:44 1.15399 104.58007 15186 ft 395 kts 130°
2026-04-26 13:45 1.13546 104.60043 15477 ft 396 kts 130°
2026-04-26 13:45 1.11686 104.62085 15789 ft 398 kts 131°
2026-04-26 13:45 1.09841 104.64112 16094 ft 400 kts 131°
2026-04-26 13:45 1.07965 104.66172 16391 ft 401 kts 131°
2026-04-26 13:46 1.06080 104.68241 16693 ft 403 kts 131°
2026-04-26 13:46 1.04185 104.70320 16987 ft 405 kts 131°
2026-04-26 13:46 1.02286 104.72404 17269 ft 407 kts 131°
2026-04-26 13:46 1.00373 104.74503 17562 ft 409 kts 131°
2026-04-26 13:47 0.98452 104.76611 17853 ft 410 kts 131°
2026-04-26 13:47 0.96529 104.78722 18138 ft 412 kts 131°
2026-04-26 13:47 0.94594 104.80845 18380 ft 414 kts 131°
2026-04-26 13:47 0.92651 104.82977 18624 ft 415 kts 131°
2026-04-26 13:48 0.90729 104.85086 18859 ft 417 kts 131°
2026-04-26 13:48 0.88773 104.87233 19103 ft 418 kts 131°
2026-04-26 13:48 0.86809 104.89389 19347 ft 420 kts 131°
2026-04-26 13:48 0.84841 104.91548 19589 ft 421 kts 131°
2026-04-26 13:49 0.82861 104.93720 19827 ft 423 kts 131°
2026-04-26 13:49 0.80880 104.95895 20059 ft 424 kts 131°
2026-04-26 13:49 0.78889 104.98080 20288 ft 426 kts 131°
2026-04-26 13:49 0.76892 105.00270 20511 ft 427 kts 131°
2026-04-26 13:50 0.74888 105.02470 20739 ft 428 kts 131°
2026-04-26 13:50 0.72874 105.04680 20975 ft 430 kts 131°
2026-04-26 13:50 0.70858 105.06892 21176 ft 431 kts 131°
2026-04-26 13:50 0.68856 105.09088 21407 ft 433 kts 131°
2026-04-26 13:51 0.66825 105.11316 21636 ft 434 kts 131°
2026-04-26 13:51 0.64792 105.13547 21831 ft 435 kts 131°
2026-04-26 13:51 0.62746 105.15792 22052 ft 437 kts 131°
2026-04-26 13:51 0.60700 105.18036 22254 ft 439 kts 131°
2026-04-26 13:52 0.58638 105.20299 22457 ft 440 kts 131°
2026-04-26 13:52 0.56578 105.22559 22680 ft 441 kts 131°
2026-04-26 13:52 0.54507 105.24831 22874 ft 443 kts 131°
2026-04-26 13:52 0.52431 105.27109 23071 ft 444 kts 131°
2026-04-26 13:53 0.50349 105.29393 23251 ft 446 kts 131°
2026-04-26 13:53 0.48257 105.31688 23466 ft 447 kts 131°
2026-04-26 13:53 0.46161 105.33987 23620 ft 448 kts 131°
2026-04-26 13:53 0.44056 105.36297 23780 ft 450 kts 131°
2026-04-26 13:54 0.41947 105.38610 23930 ft 451 kts 131°
2026-04-26 13:54 0.39833 105.40930 24095 ft 452 kts 131°
2026-04-26 13:54 0.37710 105.43258 24247 ft 453 kts 131°
2026-04-26 13:55 0.33446 105.47936 24561 ft 456 kts 131°
2026-04-26 13:55 0.32034 105.49484 24658 ft 457 kts 131°
2026-04-26 13:55 0.27746 105.54188 24970 ft 459 kts 131°
2026-04-26 13:56 0.25593 105.56550 25114 ft 460 kts 131°
2026-04-26 13:56 0.22738 105.59682 25327 ft 461 kts 131°
2026-04-26 13:56 0.20575 105.62055 25477 ft 462 kts 131°
2026-04-26 13:56 0.18405 105.64436 25620 ft 463 kts 131°
2026-04-26 13:57 0.16962 105.66019 25727 ft 464 kts 131°
2026-04-26 13:57 0.14784 105.68407 25890 ft 465 kts 131°
2026-04-26 13:57 0.11863 105.71611 26076 ft 467 kts 131°
2026-04-26 13:57 0.10415 105.73200 26192 ft 467 kts 131°
2026-04-26 13:58 0.08223 105.75605 26337 ft 468 kts 131°
2026-04-26 13:58 0.06021 105.78020 26495 ft 470 kts 131°
2026-04-26 13:58 0.03823 105.80431 26644 ft 471 kts 131°
2026-04-26 13:58 0.01616 105.82852 26799 ft 472 kts 131°
2026-04-26 13:59 -0.00599 105.85282 26954 ft 473 kts 131°
2026-04-26 13:59 -0.02817 105.87715 27083 ft 474 kts 131°
2026-04-26 13:59 -0.05039 105.90152 27253 ft 475 kts 131°
2026-04-26 14:00 -0.11734 105.97497 27704 ft 478 kts 131°
2026-04-26 14:00 -0.13981 105.99962 27856 ft 479 kts 131°
2026-04-26 14:00 -0.15472 106.01597 27957 ft 480 kts 131°
2026-04-26 14:01 -0.18489 106.04907 28158 ft 482 kts 131°
2026-04-26 14:01 -0.20756 106.07393 28304 ft 483 kts 131°
2026-04-26 14:01 -0.23016 106.09873 28449 ft 484 kts 131°
2026-04-26 14:01 -0.25285 106.12362 28615 ft 485 kts 131°
2026-04-26 14:02 -0.27554 106.14851 28750 ft 486 kts 131°
2026-04-26 14:02 -0.29835 106.17352 28886 ft 487 kts 131°
2026-04-26 14:02 -0.32118 106.19857 29029 ft 488 kts 131°
2026-04-26 14:02 -0.34375 106.22333 29157 ft 489 kts 131°
2026-04-26 14:03 -0.36670 106.24851 29301 ft 490 kts 131°
2026-04-26 14:03 -0.38965 106.27369 29448 ft 490 kts 131°
2026-04-26 14:03 -0.41264 106.29891 29584 ft 491 kts 131°
2026-04-26 14:03 -0.43565 106.32416 29714 ft 492 kts 131°
2026-04-26 14:04 -0.45881 106.34956 29845 ft 493 kts 131°
2026-04-26 14:04 -0.48195 106.37495 29976 ft 494 kts 131°
2026-04-26 14:04 -0.50515 106.40040 30086 ft 495 kts 131°
2026-04-26 14:04 -0.52837 106.42587 30211 ft 496 kts 131°
2026-04-26 14:05 -0.55165 106.45141 30331 ft 497 kts 131°
2026-04-26 14:05 -0.57490 106.47692 30456 ft 498 kts 131°
2026-04-26 14:05 -0.59826 106.50254 30579 ft 498 kts 131°
2026-04-26 14:05 -0.62159 106.52815 30703 ft 499 kts 131°
2026-04-26 14:06 -0.64482 106.55394 30826 ft 500 kts 131°
2026-04-26 14:06 -0.66763 106.57965 30959 ft 500 kts 130°
2026-04-26 14:06 -0.69062 106.60571 31155 ft 499 kts 130°
2026-04-26 14:06 -0.71358 106.63176 31353 ft 499 kts 130°
2026-04-26 14:07 -0.73649 106.65772 31525 ft 498 kts 130°
2026-04-26 14:07 -0.75950 106.68374 31717 ft 498 kts 130°
2026-04-26 14:07 -0.78245 106.70964 31910 ft 497 kts 131°
2026-04-26 14:07 -0.80537 106.73549 32103 ft 496 kts 131°
2026-04-26 14:08 -0.82830 106.76133 32298 ft 496 kts 131°
2026-04-26 14:08 -0.85118 106.78713 32472 ft 495 kts 131°
2026-04-26 14:08 -0.87400 106.81284 32683 ft 495 kts 131°
2026-04-26 14:08 -0.89657 106.83828 32863 ft 494 kts 131°
2026-04-26 14:09 -0.91940 106.86402 33060 ft 494 kts 131°
2026-04-26 14:09 -0.94219 106.88971 33260 ft 493 kts 131°
2026-04-26 14:09 -0.96493 106.91535 33480 ft 493 kts 131°
2026-04-26 14:09 -0.98767 106.94099 33680 ft 492 kts 131°
2026-04-26 14:10 -1.01040 106.96661 33891 ft 492 kts 131°
2026-04-26 14:10 -1.03306 106.99217 34090 ft 491 kts 131°
2026-04-26 14:10 -1.05566 107.01765 34284 ft 490 kts 131°
2026-04-26 14:10 -1.07831 107.04319 34508 ft 489 kts 131°
2026-04-26 14:11 -1.12332 107.09395 34952 ft 487 kts 130°
2026-04-26 14:11 -1.14578 107.11928 35158 ft 487 kts 130°
2026-04-26 14:11 -1.16794 107.14426 35384 ft 486 kts 130°
2026-04-26 14:12 -1.19035 107.16954 35607 ft 485 kts 130°
2026-04-26 14:12 -1.21267 107.19471 35834 ft 484 kts 130°
2026-04-26 14:12 -1.23498 107.21986 36061 ft 483 kts 130°
2026-04-26 14:12 -1.25724 107.24498 36265 ft 482 kts 130°
2026-04-26 14:13 -1.30171 107.29513 36717 ft 481 kts 130°
2026-04-26 14:13 -1.32388 107.32014 36916 ft 480 kts 130°
2026-04-26 14:13 -1.34608 107.34517 37121 ft 480 kts 130°
2026-04-26 14:14 -1.36820 107.37013 37328 ft 479 kts 130°
2026-04-26 14:14 -1.39018 107.39512 37542 ft 478 kts 130°
2026-04-26 14:14 -1.41195 107.42030 37768 ft 477 kts 129°
2026-04-26 14:14 -1.43358 107.44547 37961 ft 477 kts 129°
2026-04-26 14:15 -1.45515 107.47063 38160 ft 476 kts 129°
2026-04-26 14:15 -1.47668 107.49570 38344 ft 476 kts 129°
2026-04-26 14:15 -1.49802 107.52052 38539 ft 475 kts 129°
2026-04-26 14:15 -1.51954 107.54550 38699 ft 474 kts 129°
2026-04-26 14:16 -1.54112 107.57051 38853 ft 474 kts 129°
2026-04-26 14:16 -1.58438 107.62065 38901 ft 478 kts 129°
2026-04-26 14:17 -1.62780 107.67094 38901 ft 477 kts 129°
2026-04-26 14:17 -1.67115 107.72117 38903 ft 477 kts 129°
2026-04-26 14:18 -1.71449 107.77141 38904 ft 477 kts 129°
2026-04-26 14:18 -1.75788 107.82170 38905 ft 478 kts 129°
2026-04-26 14:19 -1.80130 107.87203 38900 ft 478 kts 129°
2026-04-26 14:19 -1.84474 107.92240 38901 ft 479 kts 129°
2026-04-26 14:20 -1.88828 107.97288 38900 ft 479 kts 129°
2026-04-26 14:20 -1.93185 108.02339 38902 ft 479 kts 129°
2026-04-26 14:21 -1.97511 108.07357 38902 ft 480 kts 129°
2026-04-26 14:21 -2.01869 108.12410 38900 ft 480 kts 129°
2026-04-26 14:22 -2.06232 108.17472 38902 ft 480 kts 129°
2026-04-26 14:22 -2.10597 108.22534 38900 ft 481 kts 129°
2026-04-26 14:23 -2.14974 108.27603 38899 ft 481 kts 129°
2026-04-26 14:23 -2.19354 108.32678 38899 ft 482 kts 129°
2026-04-26 14:24 -2.23712 108.37730 38903 ft 482 kts 129°
2026-04-26 14:24 -2.28090 108.42807 38903 ft 482 kts 129°
2026-04-26 14:25 -2.32472 108.47887 38904 ft 482 kts 129°
2026-04-26 14:25 -2.36854 108.52969 38901 ft 483 kts 130°
2026-04-26 14:26 -2.41236 108.58051 38902 ft 483 kts 130°
2026-04-26 14:26 -2.45619 108.63134 38901 ft 482 kts 130°
2026-04-26 14:27 -2.49996 108.68213 38903 ft 482 kts 130°
2026-04-26 14:27 -2.54387 108.73291 38905 ft 482 kts 130°
2026-04-26 14:28 -2.58776 108.78358 38903 ft 482 kts 130°
2026-04-26 14:28 -2.63166 108.83429 38905 ft 482 kts 130°
2026-04-26 14:29 -2.67551 108.88498 38903 ft 482 kts 130°
2026-04-26 14:29 -2.71936 108.93568 38901 ft 482 kts 130°
2026-04-26 14:30 -2.76324 108.98643 38903 ft 482 kts 130°
2026-04-26 14:30 -2.80711 109.03718 38905 ft 482 kts 129°
2026-04-26 14:31 -2.85095 109.08788 38897 ft 482 kts 130°
2026-04-26 14:31 -2.89485 109.13868 38902 ft 482 kts 129°
2026-04-26 14:32 -2.93862 109.18954 38901 ft 482 kts 129°
2026-04-26 14:32 -2.98215 109.24009 38905 ft 482 kts 129°
2026-04-26 14:33 -3.02588 109.29090 38903 ft 482 kts 129°
2026-04-26 14:33 -3.06967 109.34178 38906 ft 482 kts 129°
2026-04-26 14:34 -3.11337 109.39257 38903 ft 482 kts 129°
2026-04-26 14:34 -3.15714 109.44345 38904 ft 482 kts 129°
2026-04-26 14:35 -3.20093 109.49435 38904 ft 482 kts 129°
2026-04-26 14:35 -3.24464 109.54518 38907 ft 482 kts 129°
2026-04-26 14:36 -3.28815 109.59578 38904 ft 482 kts 129°
2026-04-26 14:36 -3.33193 109.64669 38901 ft 483 kts 129°
2026-04-26 14:37 -3.37575 109.69766 38902 ft 483 kts 129°
2026-04-26 14:37 -3.41955 109.74862 38902 ft 483 kts 129°
2026-04-26 14:38 -3.46342 109.79967 38899 ft 483 kts 129°
2026-04-26 14:38 -3.50722 109.85063 38904 ft 483 kts 129°
2026-04-26 14:39 -3.55108 109.90168 38904 ft 483 kts 129°
2026-04-26 14:39 -3.59492 109.95271 38902 ft 483 kts 129°
2026-04-26 14:40 -3.63875 110.00375 38904 ft 483 kts 129°
2026-04-26 14:40 -3.68261 110.05482 38902 ft 484 kts 129°
2026-04-26 14:41 -3.72619 110.10558 38899 ft 484 kts 129°
2026-04-26 14:41 -3.77016 110.15679 38899 ft 484 kts 129°
2026-04-26 14:42 -3.81407 110.20795 38900 ft 484 kts 129°
2026-04-26 14:42 -3.85801 110.25915 38900 ft 484 kts 129°
2026-04-26 14:43 -3.90199 110.31041 38904 ft 485 kts 129°
2026-04-26 14:43 -3.94573 110.36140 38904 ft 485 kts 129°
2026-04-26 14:44 -3.98922 110.41311 38901 ft 485 kts 127°
2026-04-26 14:44 -4.02373 110.45805 38899 ft 485 kts 126°
2026-04-26 14:45 -4.06415 110.51171 38900 ft 486 kts 126°
2026-04-26 14:45 -4.10516 110.56545 38900 ft 486 kts 126°
2026-04-26 14:46 -4.14646 110.61905 38902 ft 486 kts 127°
2026-04-26 14:46 -4.18785 110.67263 38900 ft 486 kts 127°
2026-04-26 14:47 -4.22925 110.72624 38902 ft 486 kts 127°
2026-04-26 14:47 -4.27054 110.77976 38903 ft 486 kts 127°
2026-04-26 14:48 -4.31187 110.83335 38900 ft 486 kts 127°
2026-04-26 14:48 -4.35315 110.88688 38902 ft 485 kts 127°
2026-04-26 14:49 -4.39438 110.94036 38901 ft 485 kts 127°
2026-04-26 14:49 -4.43560 110.99384 38897 ft 484 kts 127°
2026-04-26 14:50 -4.47676 111.04725 38899 ft 484 kts 127°
2026-04-26 14:50 -4.51792 111.10067 38902 ft 484 kts 127°
2026-04-26 14:51 -4.55904 111.15406 38900 ft 484 kts 127°
2026-04-26 14:51 -4.59985 111.20704 38901 ft 484 kts 127°
2026-04-26 14:52 -4.64101 111.26046 38899 ft 484 kts 127°
2026-04-26 14:52 -4.68230 111.31369 38898 ft 484 kts 127°
2026-04-26 14:53 -4.72369 111.36700 38898 ft 484 kts 127°
2026-04-26 14:53 -4.76496 111.42023 38895 ft 483 kts 127°
2026-04-26 14:54 -4.80621 111.47348 38900 ft 483 kts 127°
2026-04-26 14:54 -4.84751 111.52681 38901 ft 484 kts 127°
2026-04-26 14:55 -4.88879 111.58013 38897 ft 484 kts 127°
2026-04-26 14:55 -4.93003 111.63342 38895 ft 484 kts 127°
2026-04-26 14:56 -4.97137 111.68683 38894 ft 484 kts 127°
2026-04-26 14:56 -5.01270 111.74025 38892 ft 484 kts 127°
2026-04-26 14:57 -5.05370 111.79326 38892 ft 484 kts 127°
2026-04-26 14:57 -5.09492 111.84656 38910 ft 484 kts 127°
2026-04-26 14:58 -5.13625 111.90001 38894 ft 484 kts 127°
2026-04-26 14:58 -5.17748 111.95335 38893 ft 484 kts 127°
2026-04-26 14:59 -5.21874 112.00674 38894 ft 484 kts 127°
2026-04-26 14:59 -5.26003 112.06018 38893 ft 484 kts 127°
2026-04-26 15:00 -5.30126 112.11356 38907 ft 484 kts 127°
2026-04-26 15:00 -5.34249 112.16694 38894 ft 483 kts 127°
2026-04-26 15:01 -5.38368 112.22029 38891 ft 483 kts 127°
2026-04-26 15:01 -5.42460 112.27330 38906 ft 483 kts 127°
2026-04-26 15:02 -5.46569 112.32654 38889 ft 482 kts 127°
2026-04-26 15:02 -5.50674 112.37975 38902 ft 482 kts 127°
2026-04-26 15:03 -5.54777 112.43295 38889 ft 482 kts 127°
2026-04-26 15:03 -5.58876 112.48610 38903 ft 481 kts 127°
2026-04-26 15:04 -5.62977 112.53930 38892 ft 481 kts 127°
2026-04-26 15:04 -5.67067 112.59238 38886 ft 480 kts 127°
2026-04-26 15:05 -5.71157 112.64546 38901 ft 480 kts 127°
2026-04-26 15:05 -5.75217 112.69817 38901 ft 479 kts 127°
2026-04-26 15:06 -5.79297 112.75115 38892 ft 479 kts 127°
2026-04-26 15:06 -5.83370 112.80405 38893 ft 478 kts 127°
2026-04-26 15:07 -5.89470 112.88332 38887 ft 478 kts 127°
2026-04-26 15:07 -5.93534 112.93613 38897 ft 478 kts 127°
2026-04-26 15:08 -5.97599 112.98899 38906 ft 478 kts 127°
2026-04-26 15:08 -6.01671 113.04194 38895 ft 479 kts 127°
2026-04-26 15:09 -6.05744 113.09492 38905 ft 479 kts 127°
2026-04-26 15:09 -6.09816 113.14791 38886 ft 479 kts 127°
2026-04-26 15:10 -6.13204 113.19201 38885 ft 479 kts 127°
2026-04-26 15:10 -6.17943 113.25371 38889 ft 480 kts 127°
2026-04-26 15:11 -6.22020 113.30680 38884 ft 480 kts 127°
2026-04-26 15:11 -6.26563 113.35581 38887 ft 481 kts 140°
2026-04-26 15:12 -6.31904 113.39639 38900 ft 482 kts 143°
2026-04-26 15:12 -6.37363 113.43555 38899 ft 482 kts 143°
2026-04-26 15:13 -6.42823 113.47456 38884 ft 482 kts 143°
2026-04-26 15:13 -6.48278 113.51379 38887 ft 482 kts 143°
2026-04-26 15:14 -6.53687 113.55285 38898 ft 481 kts 143°
2026-04-26 15:14 -6.59125 113.59214 38888 ft 481 kts 143°
2026-04-26 15:15 -6.64553 113.63138 38887 ft 481 kts 143°
2026-04-26 15:15 -6.69989 113.67067 38899 ft 481 kts 143°
2026-04-26 15:16 -6.75426 113.70999 38901 ft 481 kts 143°
2026-04-26 15:16 -6.80859 113.74928 38894 ft 481 kts 143°
2026-04-26 15:17 -6.85391 113.78206 38903 ft 482 kts 143°
2026-04-26 15:17 -6.91749 113.82807 38905 ft 482 kts 143°
2026-04-26 15:18 -6.97196 113.86750 38893 ft 482 kts 143°
2026-04-26 15:18 -7.02596 113.90663 38895 ft 482 kts 143°
2026-04-26 15:19 -7.08045 113.94615 38901 ft 482 kts 143°
2026-04-26 15:19 -7.13482 113.98557 38892 ft 483 kts 143°
2026-04-26 15:20 -7.18941 114.02516 38890 ft 483 kts 143°
2026-04-26 15:20 -7.24395 114.06474 38903 ft 483 kts 143°
2026-04-26 15:21 -7.29854 114.10437 38906 ft 484 kts 143°
2026-04-26 15:21 -7.35320 114.14406 38887 ft 484 kts 143°
2026-04-26 15:22 -7.40782 114.18373 38890 ft 484 kts 143°
2026-04-26 15:22 -7.46242 114.22340 38910 ft 484 kts 143°
2026-04-26 15:23 -7.51672 114.26288 38907 ft 484 kts 143°
2026-04-26 15:23 -7.57140 114.30263 38898 ft 484 kts 143°
2026-04-26 15:24 -7.62602 114.34235 38914 ft 484 kts 143°
2026-04-26 15:24 -7.68067 114.38212 38915 ft 484 kts 143°
2026-04-26 15:25 -7.72614 114.41520 38918 ft 485 kts 143°
2026-04-26 15:25 -7.78983 114.46157 38903 ft 485 kts 143°
2026-04-26 15:26 -7.84457 114.50144 38918 ft 485 kts 143°
2026-04-26 15:26 -7.89930 114.54130 38923 ft 485 kts 143°
2026-04-26 15:27 -7.95378 114.58100 38906 ft 485 kts 143°
2026-04-26 15:27 -8.00862 114.62098 38905 ft 486 kts 143°
2026-04-26 15:28 -8.06341 114.66093 38919 ft 485 kts 143°
2026-04-26 15:28 -8.11813 114.70085 38922 ft 486 kts 143°
2026-04-26 15:29 -8.17294 114.74085 38910 ft 486 kts 143°
2026-04-26 15:30 -8.28234 114.82072 38931 ft 487 kts 143°
2026-04-26 15:30 -8.33722 114.86081 38930 ft 487 kts 143°
2026-04-26 15:31 -8.41035 114.91425 38919 ft 487 kts 143°
2026-04-26 15:32 -8.48348 114.96772 38925 ft 487 kts 143°
2026-04-26 15:32 -8.54762 115.01463 38926 ft 487 kts 143°
2026-04-26 15:33 -8.61146 115.06135 38943 ft 487 kts 143°
2026-04-26 15:33 -8.65753 115.09507 38946 ft 488 kts 143°
2026-04-26 15:34 -8.71244 115.13529 38935 ft 488 kts 143°
2026-04-26 15:34 -8.76533 115.17749 38930 ft 488 kts 137°
2026-04-26 15:35 -8.81545 115.22370 38947 ft 488 kts 136°
2026-04-26 15:35 -8.86516 115.27050 38927 ft 488 kts 136°
2026-04-26 15:36 -8.91492 115.31741 38924 ft 488 kts 136°
2026-04-26 15:36 -8.96465 115.36420 38912 ft 488 kts 136°
2026-04-26 15:37 -9.01441 115.41096 38905 ft 488 kts 136°
2026-04-26 15:37 -9.06417 115.45774 38910 ft 488 kts 136°
2026-04-26 15:38 -9.11400 115.50460 38904 ft 488 kts 136°
2026-04-26 15:38 -9.16337 115.55105 38906 ft 488 kts 136°
2026-04-26 15:39 -9.21314 115.59791 38908 ft 489 kts 136°
2026-04-26 15:39 -9.25488 115.63722 38906 ft 490 kts 136°
2026-04-26 15:40 -9.31294 115.69192 38904 ft 491 kts 136°
2026-04-26 15:40 -9.36298 115.73910 38905 ft 492 kts 136°
2026-04-26 15:41 -9.41323 115.78645 38906 ft 493 kts 136°
2026-04-26 15:41 -9.46352 115.83386 38906 ft 494 kts 136°
2026-04-26 15:42 -9.51385 115.88137 38906 ft 494 kts 136°
2026-04-26 15:42 -9.56383 115.92854 38903 ft 494 kts 136°
2026-04-26 15:43 -9.61415 115.97605 38906 ft 494 kts 136°
2026-04-26 15:44 -9.68946 116.04723 38907 ft 493 kts 136°
2026-04-26 15:44 -9.76470 116.11837 38904 ft 493 kts 136°
2026-04-26 15:45 -9.83980 116.18945 38903 ft 492 kts 135°
2026-04-26 15:46 -9.91459 116.26028 38902 ft 492 kts 135°
2026-04-26 15:46 -9.95646 116.29996 38905 ft 492 kts 135°
2026-04-26 15:47 -10.03978 116.37891 38906 ft 492 kts 135°
2026-04-26 15:48 -10.08987 116.42638 38906 ft 493 kts 135°
2026-04-26 15:48 -10.13994 116.47389 38903 ft 493 kts 135°
2026-04-26 15:49 -10.18995 116.52140 38902 ft 493 kts 135°
2026-04-26 15:49 -10.24008 116.56899 38903 ft 493 kts 135°
2026-04-26 15:50 -10.28982 116.61625 38903 ft 493 kts 135°
2026-04-26 15:50 -10.33994 116.66391 38903 ft 494 kts 135°
2026-04-26 15:51 -10.39026 116.71173 38903 ft 494 kts 135°
2026-04-26 15:51 -10.44047 116.75950 38904 ft 495 kts 135°
2026-04-26 15:52 -10.49077 116.80739 38901 ft 496 kts 135°
2026-04-26 15:52 -10.54121 116.85541 38903 ft 497 kts 135°
2026-04-26 15:53 -10.59174 116.90356 38901 ft 499 kts 135°
2026-04-26 15:53 -10.64219 116.95163 38901 ft 501 kts 135°
2026-04-26 15:54 -10.69310 117.00018 38906 ft 502 kts 135°
2026-04-26 15:54 -10.74401 117.04877 38902 ft 503 kts 135°
2026-04-26 15:55 -10.79501 117.09746 38899 ft 503 kts 135°
2026-04-26 15:55 -10.84612 117.14628 38900 ft 504 kts 135°
2026-04-26 15:56 -10.89729 117.19518 38903 ft 505 kts 136°
2026-04-26 15:56 -10.94851 117.24412 38901 ft 506 kts 136°
2026-04-26 15:57 -10.99995 117.29331 38900 ft 507 kts 136°
2026-04-26 15:57 -11.05131 117.34247 38901 ft 507 kts 135°
2026-04-26 15:58 -11.10266 117.39162 38899 ft 507 kts 135°
2026-04-26 15:58 -11.15397 117.44074 38898 ft 507 kts 135°
2026-04-26 15:59 -11.20508 117.48972 38900 ft 507 kts 135°
2026-04-26 15:59 -11.25648 117.53903 38901 ft 508 kts 135°
2026-04-26 16:00 -11.30793 117.58841 38905 ft 508 kts 136°
2026-04-26 16:00 -11.35943 117.63784 38905 ft 509 kts 136°
2026-04-26 16:01 -11.41097 117.68733 38903 ft 509 kts 136°
2026-04-26 16:01 -11.46257 117.73690 38906 ft 510 kts 136°
2026-04-26 16:02 -11.51421 117.78655 38905 ft 510 kts 136°
2026-04-26 16:02 -11.56582 117.83619 38909 ft 510 kts 136°
2026-04-26 16:03 -11.61747 117.88590 38906 ft 510 kts 136°
2026-04-26 16:03 -11.66915 117.93566 38908 ft 510 kts 136°
2026-04-26 16:04 -11.72079 117.98542 38904 ft 510 kts 136°
2026-04-26 16:04 -11.77211 118.03489 38904 ft 510 kts 136°
2026-04-26 16:05 -11.82372 118.08467 38907 ft 511 kts 136°
2026-04-26 16:05 -11.87543 118.13456 38910 ft 511 kts 137°
2026-04-26 16:06 -11.92707 118.18441 38916 ft 511 kts 137°
2026-04-26 16:06 -11.97835 118.23396 38906 ft 510 kts 137°
2026-04-26 16:07 -12.02992 118.28383 38908 ft 510 kts 137°
2026-04-26 16:07 -12.08151 118.33373 38908 ft 510 kts 137°
2026-04-26 16:08 -12.13311 118.38364 38907 ft 510 kts 137°
2026-04-26 16:08 -12.18467 118.43356 38909 ft 511 kts 137°
2026-04-26 16:09 -12.23626 118.48353 38911 ft 510 kts 137°
2026-04-26 16:09 -12.28779 118.53349 38911 ft 510 kts 137°
2026-04-26 16:10 -12.33891 118.58307 38909 ft 510 kts 137°
2026-04-26 16:10 -12.39041 118.63304 38906 ft 510 kts 137°
2026-04-26 16:11 -12.44182 118.68296 38907 ft 510 kts 137°
2026-04-26 16:11 -12.49329 118.73298 38912 ft 510 kts 137°
2026-04-26 16:12 -12.54479 118.78305 38909 ft 509 kts 137°
2026-04-26 16:12 -12.62154 118.85771 38913 ft 509 kts 137°
2026-04-26 16:13 -12.67286 118.90766 38919 ft 508 kts 137°
2026-04-26 16:13 -12.72408 118.95754 38911 ft 508 kts 137°
2026-04-26 16:14 -12.77528 119.00745 38915 ft 508 kts 137°
2026-04-26 16:15 -12.85202 119.08232 38917 ft 508 kts 137°
2026-04-26 16:15 -12.90283 119.13191 38914 ft 507 kts 137°
2026-04-26 16:16 -12.97954 119.20684 38913 ft 507 kts 137°
2026-04-26 16:16 -13.03059 119.25675 38914 ft 507 kts 137°
2026-04-26 16:17 -13.08170 119.30674 38916 ft 507 kts 137°
2026-04-26 16:17 -13.13290 119.35685 38918 ft 507 kts 137°
2026-04-26 16:18 -13.20916 119.43155 38915 ft 507 kts 137°
2026-04-26 16:19 -13.28572 119.50658 38918 ft 507 kts 137°
2026-04-26 16:20 -13.36220 119.58163 38917 ft 507 kts 137°
2026-04-26 16:20 -13.43866 119.65673 38918 ft 507 kts 137°
2026-04-26 16:21 -13.48965 119.70686 38918 ft 507 kts 137°
2026-04-26 16:21 -13.53206 119.74857 38921 ft 507 kts 137°
2026-04-26 16:22 -13.58299 119.79870 38924 ft 507 kts 137°
2026-04-26 16:22 -13.63390 119.84883 38916 ft 507 kts 137°
2026-04-26 16:23 -13.68453 119.89871 38924 ft 507 kts 137°
2026-04-26 16:23 -13.73542 119.94887 38922 ft 507 kts 137°
2026-04-26 16:24 -13.78638 119.99914 38922 ft 507 kts 137°
2026-04-26 16:24 -13.83721 120.04933 38920 ft 507 kts 137°
2026-04-26 16:25 -13.88803 120.09954 38923 ft 506 kts 137°
2026-04-26 16:25 -13.93889 120.14980 38921 ft 506 kts 137°
2026-04-26 16:26 -13.98964 120.20001 38918 ft 506 kts 137°
2026-04-26 16:26 -14.04041 120.25025 38923 ft 506 kts 137°
2026-04-26 16:27 -14.09120 120.30053 38921 ft 506 kts 137°
2026-04-26 16:27 -14.14187 120.35076 38921 ft 506 kts 137°
2026-04-26 16:28 -14.19255 120.40102 38928 ft 505 kts 137°
2026-04-26 16:28 -14.24285 120.45093 38924 ft 505 kts 137°
2026-04-26 16:29 -14.29339 120.50112 38917 ft 505 kts 137°
2026-04-26 16:29 -14.34399 120.55139 38922 ft 505 kts 137°
2026-04-26 16:30 -14.39454 120.60164 38924 ft 505 kts 137°
2026-04-26 16:30 -14.44506 120.65190 38920 ft 505 kts 137°
2026-04-26 16:31 -14.49560 120.70222 38925 ft 505 kts 137°
2026-04-26 16:31 -14.54613 120.75256 38922 ft 505 kts 137°
2026-04-26 16:32 -14.58809 120.79439 38922 ft 505 kts 137°
2026-04-26 16:32 -14.64682 120.85298 38925 ft 504 kts 137°
2026-04-26 16:33 -14.69731 120.90338 38930 ft 505 kts 137°
2026-04-26 16:33 -14.74778 120.95379 38930 ft 505 kts 137°
2026-04-26 16:34 -14.79821 121.00420 38930 ft 503 kts 137°
2026-04-26 16:34 -14.84844 121.05444 38929 ft 502 kts 137°
2026-04-26 16:35 -14.89866 121.10471 38927 ft 502 kts 137°
2026-04-26 16:35 -14.94891 121.15504 38929 ft 502 kts 137°
2026-04-26 16:36 -14.99915 121.20540 38929 ft 503 kts 137°
2026-04-26 16:36 -15.04936 121.25576 38931 ft 503 kts 137°
2026-04-26 16:37 -15.09959 121.30618 38930 ft 503 kts 137°
2026-04-26 16:37 -15.14943 121.35623 38927 ft 503 kts 137°
2026-04-26 16:38 -15.19957 121.40664 38928 ft 502 kts 137°
2026-04-26 16:38 -15.24971 121.45706 38933 ft 502 kts 137°
2026-04-26 16:39 -15.29985 121.50753 38931 ft 503 kts 137°
2026-04-26 16:39 -15.35001 121.55806 38934 ft 503 kts 137°
2026-04-26 16:40 -15.40020 121.60865 38928 ft 503 kts 137°
2026-04-26 16:40 -15.45039 121.65928 38932 ft 503 kts 138°
2026-04-26 16:41 -15.50023 121.70958 38929 ft 503 kts 138°
2026-04-26 16:41 -15.55066 121.76053 38932 ft 503 kts 138°
2026-04-26 16:42 -15.60054 121.81095 38926 ft 503 kts 138°
2026-04-26 16:42 -15.65066 121.86164 38926 ft 504 kts 138°
2026-04-26 16:43 -15.70087 121.91247 38933 ft 504 kts 138°
2026-04-26 16:43 -15.75104 121.96329 38932 ft 504 kts 138°
2026-04-26 16:44 -15.80126 122.01421 38915 ft 504 kts 138°
2026-04-26 16:44 -15.85142 122.06509 38937 ft 504 kts 138°
2026-04-26 16:45 -15.90167 122.11610 38929 ft 505 kts 138°
2026-04-26 16:45 -15.95184 122.16708 38922 ft 504 kts 138°
2026-04-26 16:46 -16.00201 122.21809 38921 ft 504 kts 139°
2026-04-26 16:46 -16.05217 122.26913 38925 ft 504 kts 139°
2026-04-26 16:47 -16.10233 122.32020 38922 ft 504 kts 139°
2026-04-26 16:47 -16.15243 122.37125 38933 ft 504 kts 139°
2026-04-26 16:48 -16.20225 122.42206 38927 ft 504 kts 139°
2026-04-26 16:48 -16.25242 122.47326 38927 ft 504 kts 139°
2026-04-26 16:49 -16.30250 122.52441 38932 ft 504 kts 139°
2026-04-26 16:49 -16.35254 122.57555 38931 ft 504 kts 139°
2026-04-26 16:50 -16.40260 122.62676 38931 ft 504 kts 139°
2026-04-26 16:50 -16.45272 122.67806 38931 ft 504 kts 139°
2026-04-26 16:51 -16.50242 122.72898 38934 ft 504 kts 139°
2026-04-26 16:51 -16.55241 122.78022 38937 ft 504 kts 139°
2026-04-26 16:52 -16.59434 122.82324 38935 ft 504 kts 139°
2026-04-26 16:52 -16.65250 122.88296 38936 ft 504 kts 139°
2026-04-26 16:53 -16.70243 122.93427 38935 ft 504 kts 139°
2026-04-26 16:53 -16.75242 122.98568 38940 ft 504 kts 139°
2026-04-26 16:54 -16.80241 123.03712 38939 ft 504 kts 139°
2026-04-26 16:54 -16.85197 123.08817 38942 ft 504 kts 139°
2026-04-26 16:55 -16.90193 123.13967 38940 ft 504 kts 139°
2026-04-26 16:55 -16.95182 123.19113 38937 ft 504 kts 139°
2026-04-26 16:56 -17.02666 123.26842 38938 ft 504 kts 139°
2026-04-26 16:57 -17.07652 123.31995 38937 ft 504 kts 139°
2026-04-26 16:57 -17.15132 123.39736 38937 ft 504 kts 139°
2026-04-26 16:58 -17.19275 123.44027 38939 ft 504 kts 139°
2026-04-26 16:59 -17.27588 123.52644 38939 ft 504 kts 139°
2026-04-26 17:00 -17.37503 123.62939 38947 ft 504 kts 139°
2026-04-26 17:00 -17.44968 123.70700 38960 ft 504 kts 139°
2026-04-26 17:01 -17.49943 123.75877 38965 ft 504 kts 139°
2026-04-26 17:01 -17.54914 123.81055 38966 ft 504 kts 139°
2026-04-26 17:02 -17.59662 123.86474 38970 ft 508 kts 130°
2026-04-26 17:02 -17.63802 123.92429 38965 ft 509 kts 128°
2026-04-26 17:03 -17.67867 123.98501 38958 ft 509 kts 128°
2026-04-26 17:03 -17.71922 124.04581 38953 ft 509 kts 128°
2026-04-26 17:04 -17.75983 124.10652 38949 ft 509 kts 128°
2026-04-26 17:04 -17.80056 124.16730 38949 ft 509 kts 128°
2026-04-26 17:05 -17.84126 124.22807 38951 ft 509 kts 128°
2026-04-26 17:05 -17.88198 124.28894 38953 ft 509 kts 128°
2026-04-26 17:06 -17.92264 124.34979 38953 ft 509 kts 128°
2026-04-26 17:06 -17.96327 124.41065 38949 ft 509 kts 128°
2026-04-26 17:07 -18.00390 124.47155 38956 ft 509 kts 128°
2026-04-26 17:07 -18.04421 124.53204 38955 ft 509 kts 128°
2026-04-26 17:08 -18.08478 124.59299 38953 ft 509 kts 128°
2026-04-26 17:08 -18.12530 124.65389 38959 ft 509 kts 128°
2026-04-26 17:09 -18.15239 124.69466 38959 ft 508 kts 129°
2026-04-26 17:09 -18.19947 124.76555 38971 ft 508 kts 129°
2026-04-26 17:10 -18.23992 124.82652 38971 ft 508 kts 129°
2026-04-26 17:10 -18.28040 124.88760 38976 ft 508 kts 129°
2026-04-26 17:11 -18.32084 124.94868 38973 ft 508 kts 129°
2026-04-26 17:11 -18.36125 125.00977 38974 ft 508 kts 129°
2026-04-26 17:12 -18.42155 125.10102 38976 ft 508 kts 129°
2026-04-26 17:13 -18.48205 125.19272 38980 ft 508 kts 129°
2026-04-26 17:14 -18.54260 125.28462 38984 ft 508 kts 129°
2026-04-26 17:14 -18.60277 125.37608 38986 ft 508 kts 129°
2026-04-26 17:15 -18.66316 125.46801 38989 ft 508 kts 129°
2026-04-26 17:16 -18.70332 125.52921 38989 ft 507 kts 129°
2026-04-26 17:16 -18.74352 125.59054 38990 ft 507 kts 129°
2026-04-26 17:17 -18.78338 125.65140 38991 ft 507 kts 129°
2026-04-26 17:17 -18.82343 125.71261 38994 ft 507 kts 129°
2026-04-26 17:18 -18.86355 125.77400 38993 ft 507 kts 129°
2026-04-26 17:18 -18.90353 125.83523 38996 ft 507 kts 129°
2026-04-26 17:19 -18.96357 125.92729 39000 ft 506 kts 129°
2026-04-26 17:19 -19.00333 125.98833 39000 ft 506 kts 129°
2026-04-26 17:20 -19.03673 126.03966 39003 ft 506 kts 129°
2026-04-26 17:20 -19.08308 126.11095 39004 ft 506 kts 129°
2026-04-26 17:21 -19.12296 126.17234 39005 ft 506 kts 129°
2026-04-26 17:21 -19.16283 126.23380 39008 ft 506 kts 129°
2026-04-26 17:22 -19.20265 126.29523 39011 ft 506 kts 129°
2026-04-26 17:22 -19.24244 126.35667 39013 ft 506 kts 129°
2026-04-26 17:23 -19.28220 126.41814 39009 ft 506 kts 129°
2026-04-26 17:23 -19.32167 126.47923 39015 ft 506 kts 129°
2026-04-26 17:24 -19.36138 126.54075 39018 ft 506 kts 129°
2026-04-26 17:24 -19.40109 126.60231 39013 ft 506 kts 129°
2026-04-26 17:25 -19.44081 126.66398 39018 ft 506 kts 129°
2026-04-26 17:25 -19.48048 126.72574 39021 ft 506 kts 129°
2026-04-26 17:26 -19.52009 126.78748 39023 ft 507 kts 129°
2026-04-26 17:26 -19.55973 126.84933 39024 ft 507 kts 129°
2026-04-26 17:27 -19.59905 126.91073 39026 ft 507 kts 129°
2026-04-26 17:27 -19.63868 126.97267 39028 ft 507 kts 129°
2026-04-26 17:28 -19.67825 127.03461 39025 ft 507 kts 129°
2026-04-26 17:28 -19.71782 127.09660 39029 ft 507 kts 130°
2026-04-26 17:29 -19.75098 127.14858 39030 ft 507 kts 130°
2026-04-26 17:29 -19.79699 127.22081 39031 ft 507 kts 130°
2026-04-26 17:30 -19.83656 127.28297 39031 ft 507 kts 130°
2026-04-26 17:30 -19.87609 127.34515 39028 ft 508 kts 130°
2026-04-26 17:31 -19.91557 127.40733 39026 ft 508 kts 130°
2026-04-26 17:31 -19.95481 127.46918 39028 ft 507 kts 130°
2026-04-26 17:32 -19.99424 127.53140 39029 ft 507 kts 130°
2026-04-26 17:32 -20.03373 127.59377 39032 ft 507 kts 130°
2026-04-26 17:33 -20.07310 127.65602 39034 ft 507 kts 130°
2026-04-26 17:34 -20.13210 127.74944 39033 ft 506 kts 130°
2026-04-26 17:34 -20.17104 127.81119 39035 ft 506 kts 130°
2026-04-26 17:35 -20.21026 127.87343 39042 ft 505 kts 130°
2026-04-26 17:35 -20.24934 127.93551 39032 ft 504 kts 130°
2026-04-26 17:36 -20.28840 127.99765 39035 ft 504 kts 130°
2026-04-26 17:36 -20.32743 128.05978 39035 ft 504 kts 130°
2026-04-26 17:37 -20.36640 128.12190 39048 ft 504 kts 130°
2026-04-26 17:37 -20.40534 128.18402 39046 ft 504 kts 130°
2026-04-26 17:38 -20.46344 128.27685 39051 ft 504 kts 130°
2026-04-26 17:38 -20.50235 128.33911 39049 ft 504 kts 130°
2026-04-26 17:39 -20.54120 128.40132 39046 ft 504 kts 129°
2026-04-26 17:39 -20.58006 128.46363 39051 ft 504 kts 129°
2026-04-26 17:40 -20.61229 128.51535 39056 ft 504 kts 129°
2026-04-26 17:40 -20.65764 128.58822 39054 ft 504 kts 129°
2026-04-26 17:41 -20.69624 128.65032 39054 ft 504 kts 129°
2026-04-26 17:41 -20.73499 128.71272 39057 ft 504 kts 129°
2026-04-26 17:42 -20.77372 128.77516 39060 ft 504 kts 129°
2026-04-26 17:42 -20.81247 128.83769 39058 ft 504 kts 129°
2026-04-26 17:43 -20.85113 128.90015 39052 ft 504 kts 129°
2026-04-26 17:43 -20.88981 128.96271 39056 ft 504 kts 129°
2026-04-26 17:44 -20.92820 129.02487 39057 ft 504 kts 129°
2026-04-26 17:44 -20.96682 129.08748 39057 ft 504 kts 129°
2026-04-26 17:45 -21.00541 129.15010 39056 ft 503 kts 130°
2026-04-26 17:45 -21.04373 129.21235 39062 ft 503 kts 130°
2026-04-26 17:46 -21.08223 129.27496 39060 ft 503 kts 130°
2026-04-26 17:46 -21.12069 129.33759 39059 ft 503 kts 130°
2026-04-26 17:47 -21.14640 129.37948 39059 ft 503 kts 130°
2026-04-26 17:47 -21.19751 129.46288 39067 ft 502 kts 130°
2026-04-26 17:48 -21.23589 129.52557 39065 ft 502 kts 130°
2026-04-26 17:48 -21.27415 129.58814 39063 ft 502 kts 130°
2026-04-26 17:49 -21.31244 129.65085 39066 ft 502 kts 130°
2026-04-26 17:49 -21.35064 129.71347 39066 ft 502 kts 130°
2026-04-26 17:50 -21.38861 129.77577 39067 ft 502 kts 130°
2026-04-26 17:50 -21.42674 129.83841 39066 ft 501 kts 130°
2026-04-26 17:51 -21.46489 129.90116 39053 ft 501 kts 130°
2026-04-26 17:51 -21.50294 129.96381 39073 ft 501 kts 130°
2026-04-26 17:52 -21.54099 130.02654 39080 ft 501 kts 130°
2026-04-26 17:52 -21.57896 130.08922 39070 ft 500 kts 130°
2026-04-26 17:53 -21.61694 130.15196 39075 ft 500 kts 130°
2026-04-26 17:54 -21.67357 130.24567 39078 ft 499 kts 130°
2026-04-26 17:54 -21.71139 130.30833 39077 ft 499 kts 130°
2026-04-26 17:55 -21.74918 130.37101 39077 ft 499 kts 130°
2026-04-26 17:55 -21.78691 130.43368 39080 ft 499 kts 131°
2026-04-26 17:56 -21.82465 130.49643 39079 ft 499 kts 131°
2026-04-26 17:57 -21.89986 130.62170 39085 ft 498 kts 131°
2026-04-26 17:57 -21.93746 130.68446 39085 ft 498 kts 131°
2026-04-26 17:58 -22.01229 130.80955 39097 ft 498 kts 131°
2026-04-26 17:59 -22.06217 130.89311 39089 ft 497 kts 131°
2026-04-26 17:59 -22.09955 130.95581 39095 ft 497 kts 131°
2026-04-26 18:00 -22.13687 131.01849 39094 ft 496 kts 131°
2026-04-26 18:00 -22.17413 131.08114 39100 ft 496 kts 131°
2026-04-26 18:01 -22.21141 131.14388 39101 ft 496 kts 131°
2026-04-26 18:01 -22.24839 131.20622 39106 ft 495 kts 131°
2026-04-26 18:02 -22.27950 131.25869 39104 ft 495 kts 131°
2026-04-26 18:02 -22.32255 131.33141 39108 ft 494 kts 131°
2026-04-26 18:03 -22.35960 131.39407 39108 ft 494 kts 131°
2026-04-26 18:03 -22.39652 131.45660 39113 ft 494 kts 131°
2026-04-26 18:04 -22.43343 131.51918 39122 ft 493 kts 131°
2026-04-26 18:05 -22.48871 131.61302 39114 ft 493 kts 131°
2026-04-26 18:05 -22.52534 131.67530 39121 ft 493 kts 131°
2026-04-26 18:06 -22.56209 131.73785 39125 ft 492 kts 131°
2026-04-26 18:06 -22.59883 131.80046 39123 ft 492 kts 131°
2026-04-26 18:07 -22.63549 131.86300 39127 ft 492 kts 131°
2026-04-26 18:07 -22.67207 131.92549 39127 ft 491 kts 131°
2026-04-26 18:08 -22.70859 131.98797 39128 ft 491 kts 131°
2026-04-26 18:08 -22.74490 132.05015 39128 ft 491 kts 131°
2026-04-26 18:09 -22.78140 132.11272 39129 ft 490 kts 131°
2026-04-26 18:09 -22.81785 132.17530 39126 ft 490 kts 131°
2026-04-26 18:10 -22.85426 132.23787 39136 ft 490 kts 131°
2026-04-26 18:10 -22.89061 132.30042 39140 ft 490 kts 131°
2026-04-26 18:11 -22.92698 132.36307 39128 ft 491 kts 131°
2026-04-26 18:11 -22.96310 132.42538 39128 ft 491 kts 131°
2026-04-26 18:12 -22.99941 132.48808 39127 ft 491 kts 131°
2026-04-26 18:12 -23.03572 132.55086 39125 ft 491 kts 131°
2026-04-26 18:13 -23.07202 132.61371 39132 ft 491 kts 131°
2026-04-26 18:13 -23.10828 132.67657 39129 ft 490 kts 131°
2026-04-26 18:14 -23.14451 132.73943 39128 ft 490 kts 131°
2026-04-26 18:14 -23.18042 132.80184 39131 ft 490 kts 131°
2026-04-26 18:15 -23.21652 132.86464 39133 ft 490 kts 131°
2026-04-26 18:15 -23.25263 132.92754 39133 ft 489 kts 131°
2026-04-26 18:16 -23.28867 132.99038 39131 ft 489 kts 131°
2026-04-26 18:16 -23.34262 133.08462 39132 ft 489 kts 131°
2026-04-26 18:17 -23.37849 133.14738 39133 ft 488 kts 131°
2026-04-26 18:17 -23.41431 133.21015 39133 ft 487 kts 131°
2026-04-26 18:18 -23.44981 133.27241 39137 ft 487 kts 131°
2026-04-26 18:18 -23.48550 133.33510 39133 ft 486 kts 131°
2026-04-26 18:19 -23.52105 133.39761 39141 ft 485 kts 131°
2026-04-26 18:19 -23.55633 133.45972 39140 ft 484 kts 132°
2026-04-26 18:20 -23.59171 133.52209 39142 ft 482 kts 132°
2026-04-26 18:20 -23.62123 133.57417 39147 ft 481 kts 132°
2026-04-26 18:21 -23.66210 133.64637 39151 ft 481 kts 132°
2026-04-26 18:21 -23.69723 133.70850 39155 ft 480 kts 132°
2026-04-26 18:22 -23.73226 133.77053 39158 ft 480 kts 132°
2026-04-26 18:22 -23.76722 133.83250 39159 ft 479 kts 132°
2026-04-26 18:23 -23.80433 133.89237 39162 ft 469 kts 139°
2026-04-26 18:23 -23.84519 133.94729 39162 ft 468 kts 140°
2026-04-26 18:24 -23.88692 134.00194 39156 ft 469 kts 140°
2026-04-26 18:24 -23.92874 134.05667 39155 ft 470 kts 139°
2026-04-26 18:25 -23.97063 134.11175 39153 ft 471 kts 139°
2026-04-26 18:25 -24.01250 134.16697 39148 ft 472 kts 139°
2026-04-26 18:26 -24.05451 134.22244 39147 ft 473 kts 138°
2026-04-26 18:26 -24.09626 134.27764 39148 ft 474 kts 138°
2026-04-26 18:27 -24.13834 134.33334 39149 ft 475 kts 137°
2026-04-26 18:27 -24.18050 134.38919 39147 ft 476 kts 137°
2026-04-26 18:28 -24.22278 134.44528 39146 ft 477 kts 137°
2026-04-26 18:28 -24.26505 134.50141 39150 ft 478 kts 137°
2026-04-26 18:29 -24.30749 134.55783 39151 ft 479 kts 136°
2026-04-26 18:29 -24.34997 134.61436 39150 ft 480 kts 136°
2026-04-26 18:30 -24.39218 134.67061 39147 ft 481 kts 136°
2026-04-26 18:30 -24.43476 134.72741 39153 ft 482 kts 135°
2026-04-26 18:31 -24.47739 134.78435 39152 ft 483 kts 135°
2026-04-26 18:31 -24.52008 134.84144 39155 ft 484 kts 135°
2026-04-26 18:32 -24.56280 134.89864 39143 ft 485 kts 134°
2026-04-26 18:32 -24.60556 134.95595 39144 ft 485 kts 134°
2026-04-26 18:33 -24.64837 135.01341 39144 ft 486 kts 134°
2026-04-26 18:33 -24.69123 135.07100 39142 ft 487 kts 133°
2026-04-26 18:34 -24.73412 135.12870 39140 ft 487 kts 133°
2026-04-26 18:34 -24.77679 135.18617 39141 ft 488 kts 133°
2026-04-26 18:35 -24.81968 135.24402 39140 ft 488 kts 133°
2026-04-26 18:35 -24.86279 135.30222 39138 ft 489 kts 132°
2026-04-26 18:36 -24.90575 135.36029 39139 ft 489 kts 132°
2026-04-26 18:36 -24.94873 135.41846 39132 ft 490 kts 131°
2026-04-26 18:37 -24.99154 135.47648 39132 ft 490 kts 131°
2026-04-26 18:37 -25.03454 135.53483 39137 ft 490 kts 131°
2026-04-26 18:38 -25.07754 135.59324 39133 ft 491 kts 131°
2026-04-26 18:38 -25.12066 135.65187 39133 ft 491 kts 131°
2026-04-26 18:39 -25.16344 135.71013 39131 ft 491 kts 131°
2026-04-26 18:39 -25.20641 135.76873 39133 ft 491 kts 131°
2026-04-26 18:40 -25.24937 135.82738 39127 ft 491 kts 131°
2026-04-26 18:40 -25.29241 135.88624 39127 ft 492 kts 131°
2026-04-26 18:41 -25.33539 135.94507 39128 ft 492 kts 131°
2026-04-26 18:41 -25.37842 136.00404 39130 ft 491 kts 131°
2026-04-26 18:42 -25.42102 136.06250 39129 ft 491 kts 130°
2026-04-26 18:42 -25.46385 136.12135 39125 ft 491 kts 130°
2026-04-26 18:43 -25.50672 136.18033 39129 ft 491 kts 130°
2026-04-26 18:43 -25.54952 136.23929 39125 ft 491 kts 130°
2026-04-26 18:44 -25.59231 136.29830 39128 ft 491 kts 130°
2026-04-26 18:44 -25.63502 136.35727 39124 ft 490 kts 130°
2026-04-26 18:45 -25.67739 136.41585 39126 ft 490 kts 130°
2026-04-26 18:45 -25.72000 136.47484 39125 ft 490 kts 130°
2026-04-26 18:46 -25.76259 136.53388 39121 ft 490 kts 130°
2026-04-26 18:46 -25.80511 136.59288 39125 ft 489 kts 131°
2026-04-26 18:47 -25.84761 136.65194 39119 ft 489 kts 131°
2026-04-26 18:47 -25.89004 136.71098 39121 ft 489 kts 131°
2026-04-26 18:48 -25.93242 136.77006 39120 ft 489 kts 131°
2026-04-26 18:48 -25.97484 136.82925 39121 ft 488 kts 131°
2026-04-26 18:49 -26.01690 136.88801 39120 ft 488 kts 131°
2026-04-26 18:49 -26.05914 136.94710 39118 ft 488 kts 131°
2026-04-26 18:50 -26.10139 137.00629 39118 ft 488 kts 131°
2026-04-26 18:50 -26.13644 137.05546 39117 ft 488 kts 131°
2026-04-26 18:51 -26.17860 137.11466 39116 ft 488 kts 131°
2026-04-26 18:51 -26.22080 137.17399 39117 ft 488 kts 131°
2026-04-26 18:52 -26.26292 137.23329 39117 ft 488 kts 131°
2026-04-26 18:52 -26.30498 137.29258 39119 ft 487 kts 131°
2026-04-26 18:53 -26.34676 137.35155 39115 ft 487 kts 131°
2026-04-26 18:53 -26.38878 137.41095 39114 ft 487 kts 131°
2026-04-26 18:54 -26.43080 137.47042 39114 ft 487 kts 131°
2026-04-26 18:54 -26.47270 137.52980 39118 ft 487 kts 131°
2026-04-26 18:55 -26.51463 137.58930 39119 ft 487 kts 131°
2026-04-26 18:55 -26.55650 137.64879 39123 ft 487 kts 131°
2026-04-26 18:56 -26.59828 137.70824 39111 ft 487 kts 131°
2026-04-26 18:56 -26.64006 137.76775 39113 ft 486 kts 131°
2026-04-26 18:57 -26.67474 137.81722 39113 ft 486 kts 131°
2026-04-26 18:57 -26.72322 137.88646 39116 ft 486 kts 131°
2026-04-26 18:58 -26.76493 137.94613 39113 ft 486 kts 131°
2026-04-26 18:58 -26.80656 138.00576 39114 ft 485 kts 131°
2026-04-26 18:59 -26.84813 138.06538 39112 ft 485 kts 131°
2026-04-26 18:59 -26.88933 138.12454 39117 ft 484 kts 131°
2026-04-26 19:00 -26.93075 138.18411 39113 ft 484 kts 131°
2026-04-26 19:00 -26.97220 138.24381 39117 ft 484 kts 131°
2026-04-26 19:01 -27.01354 138.30342 39117 ft 484 kts 131°
2026-04-26 19:01 -27.05479 138.36300 39117 ft 483 kts 131°
2026-04-26 19:02 -27.09577 138.42226 39119 ft 483 kts 132°
2026-04-26 19:02 -27.13024 138.47216 39118 ft 483 kts 132°
2026-04-26 19:03 -27.17805 138.54148 39126 ft 482 kts 132°
2026-04-26 19:03 -27.21911 138.60109 39120 ft 482 kts 132°
2026-04-26 19:04 -27.26014 138.66074 39119 ft 482 kts 132°
2026-04-26 19:04 -27.30108 138.72034 39123 ft 481 kts 132°
2026-04-26 19:05 -27.36239 138.80976 39126 ft 481 kts 132°
2026-04-26 19:06 -27.40316 138.86932 39129 ft 481 kts 132°
2026-04-26 19:06 -27.44399 138.92904 39125 ft 480 kts 132°
2026-04-26 19:07 -27.48465 138.98861 39125 ft 480 kts 132°
2026-04-26 19:07 -27.52510 139.04792 39125 ft 479 kts 132°
2026-04-26 19:08 -27.56565 139.10749 39129 ft 479 kts 132°
2026-04-26 19:08 -27.60618 139.16710 39127 ft 479 kts 132°
2026-04-26 19:09 -27.64665 139.22671 39131 ft 478 kts 132°
2026-04-26 19:09 -27.68710 139.28636 39130 ft 478 kts 133°
2026-04-26 19:10 -27.72740 139.34587 39129 ft 477 kts 133°
2026-04-26 19:10 -27.76768 139.40546 39126 ft 477 kts 133°
2026-04-26 19:11 -27.80789 139.46500 39130 ft 477 kts 133°
2026-04-26 19:11 -27.84804 139.52453 39130 ft 476 kts 133°
2026-04-26 19:12 -27.88814 139.58408 39134 ft 476 kts 133°
2026-04-26 19:12 -27.92794 139.64326 39134 ft 475 kts 133°
2026-04-26 19:13 -27.96793 139.70282 39134 ft 475 kts 133°
2026-04-26 19:13 -28.00787 139.76239 39132 ft 475 kts 133°
2026-04-26 19:14 -28.04774 139.82191 39133 ft 474 kts 133°
2026-04-26 19:14 -28.08759 139.88149 39139 ft 474 kts 133°
2026-04-26 19:15 -28.12735 139.94104 39142 ft 473 kts 133°
2026-04-26 19:15 -28.16678 140.00015 39138 ft 473 kts 133°
2026-04-26 19:16 -28.20640 140.05964 39140 ft 472 kts 134°
2026-04-26 19:16 -28.24594 140.11910 39136 ft 472 kts 134°
2026-04-26 19:17 -28.28540 140.17852 39144 ft 471 kts 134°
2026-04-26 19:17 -28.32490 140.23807 39147 ft 471 kts 134°
2026-04-26 19:18 -28.36427 140.29752 39144 ft 471 kts 134°
2026-04-26 19:18 -28.40358 140.35695 39149 ft 470 kts 134°
2026-04-26 19:19 -28.44265 140.41610 39146 ft 470 kts 134°
2026-04-26 19:19 -28.48185 140.47554 39151 ft 470 kts 134°
2026-04-26 19:20 -28.52100 140.53499 39154 ft 469 kts 134°
2026-04-26 19:20 -28.56011 140.59445 39152 ft 469 kts 134°
2026-04-26 19:21 -28.59892 140.65354 39156 ft 468 kts 134°
2026-04-26 19:21 -28.63786 140.71291 39154 ft 468 kts 134°
2026-04-26 19:22 -28.67676 140.77230 39159 ft 467 kts 134°
2026-04-26 19:22 -28.71562 140.83172 39161 ft 467 kts 134°
2026-04-26 19:23 -28.75440 140.89111 39168 ft 467 kts 134°
2026-04-26 19:23 -28.79311 140.95047 39161 ft 466 kts 134°
2026-04-26 19:24 -28.83178 141.00985 39171 ft 466 kts 134°
2026-04-26 19:24 -28.88965 141.09887 39156 ft 465 kts 134°
2026-04-26 19:25 -28.91515 141.13815 39162 ft 465 kts 134°
2026-04-26 19:25 -28.96630 141.21708 39172 ft 464 kts 134°
2026-04-26 19:26 -29.00465 141.27634 39173 ft 463 kts 134°
2026-04-26 19:26 -29.04293 141.33559 39176 ft 463 kts 134°
2026-04-26 19:27 -29.08114 141.39479 39180 ft 463 kts 134°
2026-04-26 19:27 -29.11934 141.45407 39179 ft 462 kts 134°
2026-04-26 19:28 -29.15748 141.51333 39182 ft 461 kts 134°
2026-04-26 19:28 -29.19546 141.57244 39187 ft 461 kts 134°
2026-04-26 19:29 -29.23342 141.63160 39187 ft 460 kts 134°
2026-04-26 19:29 -29.27105 141.69034 39189 ft 460 kts 134°
2026-04-26 19:30 -29.30888 141.74948 39191 ft 460 kts 134°
2026-04-26 19:30 -29.34024 141.79857 39193 ft 459 kts 134°
2026-04-26 19:31 -29.38430 141.86762 39197 ft 459 kts 134°
2026-04-26 19:31 -29.42193 141.92670 39197 ft 458 kts 134°
2026-04-26 19:32 -29.45947 141.98571 39199 ft 458 kts 134°
2026-04-26 19:32 -29.49702 142.04482 39199 ft 457 kts 134°
2026-04-26 19:33 -29.53415 142.10336 39201 ft 456 kts 134°
2026-04-26 19:33 -29.57148 142.16229 39202 ft 456 kts 133°
2026-04-26 19:34 -29.60879 142.22127 39204 ft 456 kts 133°
2026-04-26 19:34 -29.64598 142.28016 39205 ft 456 kts 133°
2026-04-26 19:35 -29.68316 142.33911 39205 ft 455 kts 133°
2026-04-26 19:35 -29.72034 142.39815 39205 ft 455 kts 133°
2026-04-26 19:36 -29.74519 142.43764 39207 ft 455 kts 133°
2026-04-26 19:36 -29.79453 142.51622 39203 ft 454 kts 133°
2026-04-26 19:37 -29.83150 142.57517 39205 ft 454 kts 133°
2026-04-26 19:37 -29.86844 142.63417 39208 ft 454 kts 133°
2026-04-26 19:38 -29.90511 142.69278 39210 ft 453 kts 133°
2026-04-26 19:38 -29.94399 142.74939 39207 ft 449 kts 137°
2026-04-26 19:39 -29.98407 142.80459 39211 ft 448 kts 137°
2026-04-26 19:39 -30.02387 142.86014 39211 ft 449 kts 136°
2026-04-26 19:40 -30.05689 142.90695 39216 ft 449 kts 136°
2026-04-26 19:40 -30.09591 142.96260 39224 ft 448 kts 136°
2026-04-26 19:41 -30.13513 143.01862 39211 ft 448 kts 136°
2026-04-26 19:41 -30.16794 143.06553 39219 ft 448 kts 136°
2026-04-26 19:42 -30.21347 143.13067 39216 ft 447 kts 136°
2026-04-26 19:42 -30.25260 143.18675 39217 ft 447 kts 136°
2026-04-26 19:43 -30.29139 143.24241 39221 ft 447 kts 135°
2026-04-26 19:43 -30.33065 143.29883 39222 ft 447 kts 135°
2026-04-26 19:44 -30.36934 143.35451 39228 ft 446 kts 135°
2026-04-26 19:44 -30.40820 143.41051 39225 ft 446 kts 135°
2026-04-26 19:45 -30.44709 143.46663 39229 ft 446 kts 135°
2026-04-26 19:45 -30.48589 143.52271 39228 ft 445 kts 135°
2026-04-26 19:46 -30.52467 143.57883 39228 ft 445 kts 135°
2026-04-26 19:46 -30.56338 143.63494 39230 ft 445 kts 135°
2026-04-26 19:47 -30.59552 143.68158 39230 ft 445 kts 135°
2026-04-26 19:47 -30.64045 143.74687 39232 ft 445 kts 135°
2026-04-26 19:48 -30.67913 143.80317 39228 ft 445 kts 135°
2026-04-26 19:48 -30.71777 143.85949 39230 ft 445 kts 135°
2026-04-26 19:49 -30.75637 143.91583 39232 ft 445 kts 135°
2026-04-26 19:49 -30.79469 143.97184 39226 ft 445 kts 135°
2026-04-26 19:50 -30.83324 144.02828 39230 ft 445 kts 135°
2026-04-26 19:50 -30.87179 144.08477 39229 ft 446 kts 134°
2026-04-26 19:51 -30.91037 144.14142 39232 ft 446 kts 134°
2026-04-26 19:51 -30.94891 144.19806 39230 ft 446 kts 134°
2026-04-26 19:52 -30.98720 144.25444 39235 ft 446 kts 134°
2026-04-26 19:52 -31.02573 144.31125 39232 ft 447 kts 134°
2026-04-26 19:53 -31.06433 144.36825 39230 ft 448 kts 134°
2026-04-26 19:53 -31.10293 144.42534 39229 ft 448 kts 134°
2026-04-26 19:54 -31.14151 144.48246 39228 ft 448 kts 134°
2026-04-26 19:54 -31.18012 144.53973 39230 ft 449 kts 133°
2026-04-26 19:55 -31.21877 144.59714 39233 ft 449 kts 133°
2026-04-26 19:55 -31.25715 144.65422 39233 ft 450 kts 133°
2026-04-26 19:56 -31.29579 144.71179 39236 ft 450 kts 133°
2026-04-26 19:56 -31.33445 144.76945 39236 ft 451 kts 133°
2026-04-26 19:57 -31.37314 144.82727 39240 ft 451 kts 133°
2026-04-26 19:57 -31.41187 144.88522 39241 ft 452 kts 133°
2026-04-26 19:58 -31.45058 144.94323 39241 ft 453 kts 133°
2026-04-26 19:58 -31.48935 145.00142 39244 ft 453 kts 133°
2026-04-26 19:59 -31.52817 145.05978 39243 ft 454 kts 132°
2026-04-26 19:59 -31.56699 145.11820 39247 ft 454 kts 132°
2026-04-26 20:00 -31.60579 145.17670 39246 ft 455 kts 132°
2026-04-26 20:00 -31.64465 145.23538 39250 ft 455 kts 132°
2026-04-26 20:01 -31.68351 145.29416 39253 ft 456 kts 132°
2026-04-26 20:01 -31.72241 145.35308 39247 ft 456 kts 132°
2026-04-26 20:02 -31.76132 145.41210 39250 ft 457 kts 131°
2026-04-26 20:02 -31.79368 145.46126 39253 ft 457 kts 131°
2026-04-26 20:03 -31.83897 145.53016 39252 ft 458 kts 131°
2026-04-26 20:03 -31.87793 145.58953 39256 ft 459 kts 131°
2026-04-26 20:04 -31.91694 145.64907 39258 ft 460 kts 131°
2026-04-26 20:04 -31.95598 145.70876 39263 ft 460 kts 131°
2026-04-26 20:05 -31.99503 145.76855 39262 ft 461 kts 131°
2026-04-26 20:05 -32.03406 145.82840 39263 ft 461 kts 131°
2026-04-26 20:06 -32.07318 145.88850 39262 ft 462 kts 131°
2026-04-26 20:06 -32.11231 145.94868 39264 ft 463 kts 131°
2026-04-26 20:07 -32.15147 146.00902 39264 ft 463 kts 131°
2026-04-26 20:07 -32.19060 146.06942 39263 ft 464 kts 130°
2026-04-26 20:08 -32.22981 146.13002 39261 ft 464 kts 130°
2026-04-26 20:08 -32.26880 146.19038 39261 ft 465 kts 130°
2026-04-26 20:09 -32.30804 146.25124 39262 ft 466 kts 130°
2026-04-26 20:09 -32.34731 146.31222 39263 ft 466 kts 130°
2026-04-26 20:10 -32.38665 146.37342 39264 ft 467 kts 130°
2026-04-26 20:10 -32.42592 146.43461 39263 ft 467 kts 130°
2026-04-26 20:11 -32.46523 146.49598 39264 ft 467 kts 130°
2026-04-26 20:12 -32.52413 146.58809 39263 ft 468 kts 130°
2026-04-26 20:12 -32.56321 146.64934 39263 ft 468 kts 130°
2026-04-26 20:13 -32.60246 146.71095 39265 ft 468 kts 129°
2026-04-26 20:13 -32.64185 146.77288 39267 ft 469 kts 129°
2026-04-26 20:14 -32.68111 146.83469 39265 ft 469 kts 129°
2026-04-26 20:14 -32.72039 146.89667 39266 ft 470 kts 129°
2026-04-26 20:15 -32.75969 146.95878 39267 ft 470 kts 129°
2026-04-26 20:15 -32.79874 147.02059 39269 ft 471 kts 129°
2026-04-26 20:16 -32.83803 147.08289 39272 ft 471 kts 129°
2026-04-26 20:16 -32.87731 147.14527 39269 ft 471 kts 129°
2026-04-26 20:17 -32.91666 147.20786 39273 ft 472 kts 129°
2026-04-26 20:17 -32.95573 147.27012 39270 ft 472 kts 129°
2026-04-26 20:18 -32.99503 147.33284 39272 ft 472 kts 129°
2026-04-26 20:18 -33.03434 147.39568 39271 ft 473 kts 129°
2026-04-26 20:19 -33.07360 147.45856 39272 ft 473 kts 129°
2026-04-26 20:19 -33.11289 147.52159 39273 ft 473 kts 129°
2026-04-26 20:20 -33.15218 147.58474 39275 ft 474 kts 129°
2026-04-26 20:20 -33.19145 147.64794 39278 ft 474 kts 129°
2026-04-26 20:21 -33.23066 147.71116 39277 ft 474 kts 129°
2026-04-26 20:21 -33.26969 147.77421 39277 ft 474 kts 129°
2026-04-26 20:22 -33.30890 147.83767 39279 ft 475 kts 129°
2026-04-26 20:22 -33.34822 147.90138 39281 ft 475 kts 129°
2026-04-26 20:23 -33.39039 147.96128 39279 ft 473 kts 134°
2026-04-26 20:23 -33.43492 148.01939 39280 ft 473 kts 135°
2026-04-26 20:24 -33.47968 148.07723 39282 ft 474 kts 135°
2026-04-26 20:24 -33.52440 148.13520 39287 ft 474 kts 135°
2026-04-26 20:25 -33.56917 148.19345 39288 ft 474 kts 135°
2026-04-26 20:25 -33.61391 148.25181 39291 ft 475 kts 135°
2026-04-26 20:26 -33.65835 148.30986 39297 ft 475 kts 134°
2026-04-26 20:26 -33.70303 148.36834 39296 ft 475 kts 134°
2026-04-26 20:27 -33.74766 148.42684 39299 ft 475 kts 134°
2026-04-26 20:27 -33.79238 148.48554 39297 ft 476 kts 134°
2026-04-26 20:28 -33.83713 148.54438 39304 ft 476 kts 134°
2026-04-26 20:28 -33.88153 148.60288 39303 ft 476 kts 134°
2026-04-26 20:29 -33.92618 148.66180 39307 ft 476 kts 134°
2026-04-26 20:29 -33.96364 148.71130 39310 ft 477 kts 134°
2026-04-26 20:30 -34.00797 148.76997 39314 ft 477 kts 134°
2026-04-26 20:30 -34.05265 148.82920 39316 ft 477 kts 134°
2026-04-26 20:31 -34.09732 148.88852 39323 ft 477 kts 134°
2026-04-26 20:31 -34.14196 148.94791 39327 ft 477 kts 134°
2026-04-26 20:32 -34.18656 149.00734 39325 ft 478 kts 134°
2026-04-26 20:32 -34.23120 149.06692 39320 ft 478 kts 134°
2026-04-26 20:33 -34.27551 149.12617 39325 ft 478 kts 134°
2026-04-26 20:33 -34.32005 149.18582 39334 ft 478 kts 134°
2026-04-26 20:34 -34.36461 149.24560 39348 ft 478 kts 134°
2026-04-26 20:34 -34.40858 149.30612 39336 ft 480 kts 128°
2026-04-26 20:34 -34.42571 149.34084 39333 ft 483 kts 115°
2026-04-26 20:35 -34.43585 149.37957 39360 ft 485 kts 103°
2026-04-26 20:35 -34.44747 149.46046 39336 ft 486 kts 100°
2026-04-26 20:35 -34.45206 149.50085 38966 ft 481 kts 99°
2026-04-26 20:36 -34.45644 149.54088 38274 ft 480 kts 99°
2026-04-26 20:36 -34.46087 149.58107 37553 ft 480 kts 99°
2026-04-26 20:36 -34.46540 149.62123 36823 ft 481 kts 99°
2026-04-26 20:36 -34.47002 149.66137 36098 ft 482 kts 99°
2026-04-26 20:37 -34.47474 149.70173 35367 ft 483 kts 99°
2026-04-26 20:37 -34.47950 149.74209 34644 ft 484 kts 99°
2026-04-26 20:37 -34.48426 149.78252 33871 ft 486 kts 99°
2026-04-26 20:37 -34.48904 149.82319 33048 ft 486 kts 99°
2026-04-26 20:38 -34.49373 149.86320 32245 ft 487 kts 99°
2026-04-26 20:38 -34.49849 149.90392 31410 ft 488 kts 98°
2026-04-26 20:38 -34.50385 149.94472 30568 ft 489 kts 102°
2026-04-26 20:38 -34.51280 149.98450 29566 ft 491 kts 110°
2026-04-26 20:39 -34.52675 150.02212 28653 ft 490 kts 120°
2026-04-26 20:39 -34.54630 150.05575 27916 ft 485 kts 131°
2026-04-26 20:39 -34.57113 150.08301 27223 ft 480 kts 145°
2026-04-26 20:39 -34.60049 150.10183 26552 ft 475 kts 160°
2026-04-26 20:40 -34.63244 150.11046 25891 ft 470 kts 175°
2026-04-26 20:40 -34.66488 150.10836 25218 ft 467 kts 191°
2026-04-26 20:40 -34.69537 150.09570 24568 ft 462 kts 207°
2026-04-26 20:40 -34.72161 150.07351 23948 ft 458 kts 223°
2026-04-26 20:41 -34.74130 150.04412 23214 ft 453 kts 239°
2026-04-26 20:41 -34.75350 150.00913 22510 ft 448 kts 256°
2026-04-26 20:41 -34.75700 149.97180 21829 ft 443 kts 272°
2026-04-26 20:41 -34.75180 149.93518 21152 ft 438 kts 288°
2026-04-26 20:42 -34.73956 149.90151 20473 ft 434 kts 300°
2026-04-26 20:42 -34.72341 149.87075 19791 ft 430 kts 300°
2026-04-26 20:42 -34.70973 149.83852 19139 ft 427 kts 294°
2026-04-26 20:42 -34.69857 149.80536 18487 ft 423 kts 290°
2026-04-26 20:43 -34.68932 149.77156 17757 ft 419 kts 288°
2026-04-26 20:43 -34.67805 149.73929 17360 ft 412 kts 298°
2026-04-26 20:43 -34.66125 149.71109 17218 ft 415 kts 312°
2026-04-26 20:43 -34.63935 149.68817 17101 ft 415 kts 325°
2026-04-26 20:44 -34.61364 149.67234 16964 ft 415 kts 340°
2026-04-26 20:44 -34.58547 149.66568 16834 ft 416 kts 357°
2026-04-26 20:44 -34.55683 149.66950 16718 ft 416 kts 15°
2026-04-26 20:44 -34.53048 149.68359 16580 ft 416 kts 32°
2026-04-26 20:45 -34.50879 149.70663 16460 ft 415 kts 50°
2026-04-26 20:45 -34.49379 149.73632 16349 ft 414 kts 67°
2026-04-26 20:45 -34.48674 149.77001 16206 ft 413 kts 85°
2026-04-26 20:45 -34.48680 149.80428 16096 ft 412 kts 94°
2026-04-26 20:46 -34.48958 149.83881 15969 ft 411 kts 97°
2026-04-26 20:46 -34.49349 149.87302 15840 ft 411 kts 98°
2026-04-26 20:46 -34.49777 149.90731 15717 ft 410 kts 99°
2026-04-26 20:46 -34.50319 149.94129 15593 ft 410 kts 106°
2026-04-26 20:47 -34.51390 149.97314 15468 ft 408 kts 120°
2026-04-26 20:47 -34.52464 149.99188 15384 ft 407 kts 131°
2026-04-26 20:47 -34.55429 150.01961 15223 ft 405 kts 155°
2026-04-26 20:47 -34.58118 150.02908 15003 ft 402 kts 174°
2026-04-26 20:48 -34.60892 150.02725 14764 ft 400 kts 193°
2026-04-26 20:48 -34.63436 150.01431 14527 ft 398 kts 213°
2026-04-26 20:48 -34.65471 149.99180 14294 ft 396 kts 232°
2026-04-26 20:48 -34.66749 149.96244 14060 ft 394 kts 252°
2026-04-26 20:49 -34.67120 149.92966 13791 ft 394 kts 272°
2026-04-26 20:49 -34.66543 149.89737 13535 ft 393 kts 292°
2026-04-26 20:49 -34.65080 149.86938 13272 ft 394 kts 312°
2026-04-26 20:49 -34.62922 149.84928 13012 ft 394 kts 332°
2026-04-26 20:50 -34.60379 149.83668 12760 ft 393 kts 341°
2026-04-26 20:50 -34.57768 149.82696 12510 ft 393 kts 343°
2026-04-26 20:50 -34.55159 149.81763 12292 ft 391 kts 343°
2026-04-26 20:50 -34.52488 149.81085 12280 ft 392 kts 353°
2026-04-26 20:51 -34.49805 149.81154 12275 ft 392 kts
2026-04-26 20:51 -34.47242 149.82176 12277 ft 391 kts 27°
2026-04-26 20:51 -34.45074 149.84170 12276 ft 392 kts 47°
2026-04-26 20:51 -34.43593 149.86921 12270 ft 391 kts 67°
2026-04-26 20:52 -34.42722 149.90037 12046 ft 390 kts 73°
2026-04-26 20:52 -34.41932 149.93172 11804 ft 389 kts 73°
2026-04-26 20:52 -34.41113 149.96304 11557 ft 388 kts 72°
2026-04-26 20:52 -34.40277 149.99409 11311 ft 387 kts 72°
2026-04-26 20:53 -34.39432 150.02496 11066 ft 386 kts 72°
2026-04-26 20:53 -34.38585 150.05566 10830 ft 384 kts 72°
2026-04-26 20:53 -34.37736 150.08628 10586 ft 383 kts 72°
2026-04-26 20:53 -34.36886 150.11677 10337 ft 381 kts 71°
2026-04-26 20:54 -34.36039 150.14712 10096 ft 380 kts 71°
2026-04-26 20:54 -34.35196 150.17723 9874 ft 370 kts 71°
2026-04-26 20:54 -34.34391 150.20595 9602 ft 352 kts 71°
2026-04-26 20:54 -34.33630 150.23307 9344 ft 339 kts 71°
2026-04-26 20:55 -34.32886 150.25957 9095 ft 326 kts 71°
2026-04-26 20:55 -34.32171 150.28500 8956 ft 311 kts 71°
2026-04-26 20:55 -34.31489 150.30924 8745 ft 300 kts 71°
2026-04-26 20:55 -34.30826 150.33278 8485 ft 291 kts 71°
2026-04-26 20:56 -34.30180 150.35568 8243 ft 285 kts 71°
2026-04-26 20:56 -34.29541 150.37833 8063 ft 284 kts 71°
2026-04-26 20:56 -34.28903 150.40095 8044 ft 284 kts 71°
2026-04-26 20:56 -34.28249 150.42350 8043 ft 284 kts 69°
2026-04-26 20:57 -34.27423 150.44517 8042 ft 284 kts 62°
2026-04-26 20:57 -34.26490 150.46618 8043 ft 284 kts 61°
2026-04-26 20:57 -34.25545 150.48713 8039 ft 284 kts 61°
2026-04-26 20:57 -34.24599 150.50815 8037 ft 284 kts 61°
2026-04-26 20:58 -34.23659 150.52906 8035 ft 284 kts 61°
2026-04-26 20:58 -34.22719 150.55004 8037 ft 284 kts 61°
2026-04-26 20:58 -34.21776 150.57106 8033 ft 284 kts 61°
2026-04-26 20:58 -34.20835 150.59204 8034 ft 284 kts 61°
2026-04-26 20:59 -34.19903 150.61281 8254 ft 279 kts 61°
2026-04-26 20:59 -34.18932 150.63445 7496 ft 299 kts 61°
2026-04-26 20:59 -34.17966 150.65599 7348 ft 281 kts 61°
2026-04-26 20:59 -34.17048 150.67653 7231 ft 278 kts 61°
2026-04-26 21:00 -34.16121 150.69708 7110 ft 280 kts 61°
2026-04-26 21:00 -34.15191 150.71768 6990 ft 279 kts 61°
2026-04-26 21:00 -34.14264 150.73825 6874 ft 279 kts 61°
2026-04-26 21:00 -34.13338 150.75878 6752 ft 278 kts 61°
2026-04-26 21:01 -34.12426 150.77899 6524 ft 277 kts 61°
2026-04-26 21:01 -34.11530 150.79883 6315 ft 258 kts 62°
2026-04-26 21:01 -34.10691 150.81738 6080 ft 247 kts 62°
2026-04-26 21:01 -34.09884 150.83530 6021 ft 240 kts 62°
2026-04-26 21:02 -34.09091 150.85304 6018 ft 241 kts 62°
2026-04-26 21:02 -34.08298 150.87063 5882 ft 238 kts 62°
2026-04-26 21:02 -34.07505 150.88819 5646 ft 239 kts 62°
2026-04-26 21:02 -34.06712 150.90577 5387 ft 238 kts 62°
2026-04-26 21:03 -34.05924 150.92328 5131 ft 237 kts 63°
2026-04-26 21:03 -34.05139 150.94069 5018 ft 236 kts 63°
2026-04-26 21:03 -34.04354 150.95811 5001 ft 236 kts 63°
2026-04-26 21:03 -34.03608 150.97572 4961 ft 236 kts 68°
2026-04-26 21:04 -34.03235 150.99482 4836 ft 234 kts 89°
2026-04-26 21:04 -34.03469 151.01391 4702 ft 228 kts 110°
2026-04-26 21:04 -34.04240 151.03009 4584 ft 219 kts 130°
2026-04-26 21:04 -34.05245 151.04331 4485 ft 209 kts 134°
2026-04-26 21:05 -34.06235 151.05548 4400 ft 197 kts 134°
2026-04-26 21:05 -34.07169 151.06693 4276 ft 187 kts 135°
2026-04-26 21:05 -34.08184 151.07627 4155 ft 187 kts 150°
2026-04-26 21:05 -34.09409 151.08146 4032 ft 188 kts 165°
2026-04-26 21:06 -34.10703 151.08478 3860 ft 189 kts 167°
2026-04-26 21:06 -34.11983 151.08811 3569 ft 189 kts 164°
2026-04-26 21:06 -34.13148 151.09523 3208 ft 189 kts 139°
2026-04-26 21:06 -34.13849 151.10821 3022 ft 187 kts 103°
2026-04-26 21:07 -34.13798 151.12360 3004 ft 184 kts 71°
2026-04-26 21:07 -34.13370 151.13815 2998 ft 184 kts 70°
2026-04-26 21:07 -34.13145 151.15352 2873 ft 187 kts 82°
2026-04-26 21:07 -34.13035 151.16907 2807 ft 185 kts 84°
2026-04-26 21:08 -34.12939 151.18455 2798 ft 185 kts 83°
2026-04-26 21:08 -34.12844 151.20002 2790 ft 181 kts 83°
2026-04-26 21:08 -34.12546 151.21364 2766 ft 159 kts 51°
2026-04-26 21:08 -34.11656 151.21938 2779 ft 141 kts 10°
2026-04-26 21:09 -34.10708 151.21908 2795 ft 137 kts 349°
2026-04-26 21:09 -34.09795 151.21631 2751 ft 135 kts 347°
2026-04-26 21:09 -34.08887 151.21381 2542 ft 132 kts 349°
2026-04-26 21:09 -34.07990 151.21150 2372 ft 131 kts 349°
2026-04-26 21:10 -34.07099 151.20914 2182 ft 130 kts 348°
2026-04-26 21:10 -34.06216 151.20679 2010 ft 129 kts 348°
2026-04-26 21:10 -34.05339 151.20423 1829 ft 129 kts 346°
2026-04-26 21:10 -34.04468 151.20155 1659 ft 129 kts 347°
2026-04-26 21:11 -34.03585 151.19931 1477 ft 129 kts 349°
2026-04-26 21:11 -34.02706 151.19715 1292 ft 128 kts 347°
2026-04-26 21:11 -34.01831 151.19489 1115 ft 129 kts 347°
2026-04-26 21:11 -34.00958 151.19251 950 ft 129 kts 346°
2026-04-26 21:12 -34.00096 151.19020 761 ft 128 kts 346°
2026-04-26 21:12 -33.99227 151.18795 603 ft 127 kts 347°
2026-04-26 21:12 -33.98363 151.18559 417 ft 127 kts 346°
2026-04-26 21:12 -33.97498 151.18337 278 ft 129 kts 349°
2026-04-26 21:13 -33.96634 151.18115 109 ft 127 kts 347°
2026-04-26 21:13 -33.95785 151.17895 30 ft 119 kts 348°
2026-04-26 21:13 -33.95158 151.17735 27 ft 53 kts 348°
2026-04-26 21:13 -33.95049 151.17708 28 ft 0 kts 348°
2026-04-26 21:14 -33.95046 151.17707 28 ft 2 kts 348°
2026-04-26 21:14 -33.94992 151.17693 27 ft 12 kts 347°
2026-04-26 21:14 -33.94884 151.17665 29 ft 20 kts 348°
2026-04-26 21:14 -33.94766 151.17617 29 ft 9 kts 313°
2026-04-26 21:15 -33.94752 151.17550 30 ft 8 kts 270°
2026-04-26 21:15 -33.94742 151.17479 31 ft 8 kts 290°
2026-04-26 21:15 -33.94711 151.17438 32 ft 6 kts 331°
2026-04-26 21:15 -33.94674 151.17424 32 ft 6 kts 344°
2026-04-26 21:16 -33.94624 151.17406 33 ft 9 kts 343°
2026-04-26 21:16 -33.94551 151.17380 33 ft 13 kts 343°
2026-04-26 21:16 -33.94459 151.17351 33 ft 15 kts 347°
2026-04-26 21:16 -33.94348 151.17320 32 ft 18 kts 347°
2026-04-26 21:17 -33.94210 151.17284 28 ft 22 kts 348°
2026-04-26 21:17 -33.94129 151.17262 28 ft 1 kts 343°
2026-04-26 21:17 -33.94114 151.17255 28 ft 7 kts 338°
2026-04-26 21:17 -33.94081 151.17161 28 ft 14 kts 263°
2026-04-26 21:18 -33.94118 151.17003 27 ft 24 kts 252°
2026-04-26 21:18 -33.94138 151.16915 28 ft 11 kts 260°
2026-04-26 21:18 -33.94108 151.16836 29 ft 11 kts 330°
2026-04-26 21:18 -33.94020 151.16801 27 ft 14 kts 344°
2026-04-26 21:19 -33.93942 151.16776 27 ft 9 kts 351°
2026-04-26 21:19 -33.93909 151.16797 27 ft 4 kts 58°
2026-04-26 21:19 -33.93899 151.16837 27 ft 4 kts 72°
2026-04-26 21:19 -33.93893 151.16861 27 ft 0 kts 72°